Regional Weather Roundup
Issued by NWS

Home | Current Version | Previous Version | Graphics & Text | Print | Product List | Glossary Off
Versions: 1 2 3 4 5 6 7 8 9 10 11 12 13 14 15 16 17 18 19 20 21 22 23 24 25 26 27 28 29 30 31 32 33 34 35 36 37 38 39 40 41 42 43 44 45 46 47 48 49 50

000
ASUS43 KMPX 191210
RWRMN
WEATHER ROUNDUP FOR MINNESOTA
NATIONAL WEATHER SERVICE TWIN CITIES/CHANHASSEN MN
600 AM CST FRI JAN 19 2018


NOTE: "FAIR" INDICATES FEW OR NO CLOUDS BELOW 12,000 FEET WITH NO
SIGNIFICANT WEATHER AND/OR OBSTRUCTIONS TO VISIBILITY. N/A MEANS
CURRENT SKY AND/OR WEATHER CONDITIONS ARE NOT AVAILABLE.

MNZ060>063-068>070-191300-
   Twin Cities Metro

CITY           SKY/WX    TMP DP  RH WIND       PRES   REMARKS
TWIN CITIES    CLOUDY    31  26  82 S6        29.64F WCI  25
6HR MIN TEMP:  30; 6HR MAX TEMP:  32;

ST PAUL        FAIR      27  24  89 S8        29.66F WCI  19
CRYSTAL        FAIR      30  23  75 S6        29.62F WCI  24
BLAINE         FAIR      34  28  80 S6        29.61F WCI  29
LAKEVILLE      FAIR      28  25  86 S8        29.64F WCI  20
EDEN PRAIRIE   FAIR      30  25  81 SW6       29.62F WCI  24
6HR MIN TEMP:  29; 6HR MAX TEMP:  31;

SOUTH ST PAUL  FAIR      28  24  84 CALM      29.65S
LAKE ELMO      FAIR      28  27  93 S6        29.65F WCI  22
$$
MNZ001>005-007-008-013>017-022>024-027-028-191300-
   Northwest Minnesota

CITY           SKY/WX    TMP DP  RH WIND       PRES   REMARKS
BEMIDJI        FAIR      30  24  78 SW6       29.47F WCI  24
HALLOCK        FAIR      28  27  93 S7        29.43R WCI  21
ROSEAU         FAIR      36  28  75 SW14      29.39F
WARROAD        FAIR      34  28  80 SW12      29.38F WCI  25
THIEF RVR FALL FAIR      32  27  81 SW16      29.45F WCI  21
CROOKSTON      FAIR      30  27  86 S13       29.49S WCI  20
FOSSTON        FAIR      30  25  80 S10       29.49F WCI  21
DETROIT LAKES  FAIR      34  27  75 CALM      29.52S
MOORHEAD       FAIR      28  23  80 S7        29.52F WCI  21
PARK RAPIDS    FAIR      32  24  72 SW5       29.49F WCI  27
MAHNOMEN       FAIR      30  25  82 S8        29.50F WCI  22
$$
MNZ006-009>011-018-025>026-191300-
   North Central Minnesota

CITY           SKY/WX    TMP DP  RH WIND       PRES   REMARKS
BAUDETTE       FAIR      33  26  75 SW9       29.38S WCI  25
FLAG ISLAND    FAIR      30  27  86 SW14      29.34F WCI  20
INTL FALLS     FAIR      30  23  75 SW12      29.39F WCI  20
6HR MIN TEMP:  20; 6HR MAX TEMP:  30;

WASKISH        FAIR      36  28  75 SW10G16   29.43F
BIG FORK       FAIR      30  25  80 S6        29.46S WCI  24
LONGVILLE      FAIR      30  25  80 CALM      29.51R
GRAND RAPIDS   FAIR      30  24  78 S6        29.50F WCI  24
CRANE LAKE     CLOUDY    28  25  86 S3        29.45F
ORR            FAIR      28  21  74 S7        29.42F WCI  21
COOK           MOCLDY    28  23  80 S3        29.46F
WALKER         FAIR      35  25  66 W6        29.49F WCI  30
$$
MNZ012-019>021-037-191300-
   Northeast Minnesota

CITY           SKY/WX    TMP DP  RH WIND       PRES   REMARKS
DULUTH         FAIR      29  25  85 SW8       29.49F WCI  21
6HR MIN TEMP:  26; 6HR MAX TEMP:  29;

ELY            FAIR      28  25  86 S7        29.46F WCI  21
HIBBING        FAIR      23  22  96 CALM      29.49F
EVELETH        FAIR      24  20  86 CALM      29.49F
DULUTH HARBOR  FAIR      28  25  86 SW7       29.53F WCI  21
TWO HARBORS    FAIR      27  21  80 W5        29.50F WCI  21
SILVER BAY     FAIR      25  23  93 CALM      29.50F
GRAND MARAIS     N/A     31  27  85 CALM      29.52F
G MARAIS ARPRT FOG       25  21  86 S3        29.47F VSB 3/4
$$
MNZ029>031-032-039>041-046>048-054>057-064-191300-
   West Central Minnesota

CITY           SKY/WX    TMP DP  RH WIND       PRES   REMARKS
FERGUS FALLS   FAIR      28  25  86 SE6       29.52F WCI  22
WHEATON        CLOUDY    28  25  86 S12       29.54S WCI  18
MORRIS         CLOUDY    28  25  86 SE8       29.53F WCI  20
ALEXANDRIA     FAIR      34  26  72 SW5       29.54F WCI  30
ELBOW LAKE     FAIR      29  26  86 SE10      29.52F WCI  20
WADENA         FAIR      28  23  80 S5        29.50F WCI  23
GLENWOOD       FAIR      28  25  86 S9        29.55F WCI  20
APPLETON       CLOUDY    32  27  80 SE6       29.54F WCI  26
BENSON         CLOUDY    32  27  80 S7        29.56F WCI  26
ORTONVILLE     CLOUDY    32  27  80 SE7       29.53F WCI  26
MADISON        CLOUDY    34  27  75 SE6       29.54F WCI  29
WILLMAR        FAIR      27  25  93 SE5       29.60F WCI  21
$$
MNZ033>034-036-042>043-049>051-058-059-191300-
   Central Minnesota

CITY           SKY/WX    TMP DP  RH WIND       PRES   REMARKS
ST CLOUD       FAIR      27  25  92 S3        29.57F
6HR MIN TEMP:  24; 6HR MAX TEMP:  28;

SAUK CENTRE      N/A     30  26  83 S8        29.54F WCI  23
PAYNESVILLE    FAIR      32  28  86 S3        29.58F
AITKIN         FAIR      32  25  74 S8        29.48F WCI  25
PINE RIVER     FAIR      25  21  86 CALM      29.54S
BRAINERD       FAIR      33  25  72 S10       29.52F WCI  25
STAPLES        FAIR      28  23  80 S6        29.51F WCI  22
LONG PRAIRIE   FAIR      30  27  86 S6        29.54F WCI  24
LITTLE FALLS   FAIR      30  23  74 S5        29.55F WCI  25
LITCHFIELD     FAIR      34  28  80 CALM      29.59F
BUFFALO        FAIR      30  26  86 S6        29.62F WCI  24
MAPLE LAKE     FAIR      31  28  88 MISG      29.61F
HUTCHINSON     FAIR      29  27  93 SE5       29.61F WCI  24
$$
MNZ037-044-045-052-053-191300-
   East Central Minnesota

CITY           SKY/WX    TMP DP  RH WIND       PRES   REMARKS
PRINCETON      FAIR      30  27  86 S3        29.59F
MORA           FAIR      27  25  93 CALM      29.60F
CAMBRIDGE      FAIR      30  27  86 S5        29.61F WCI  25
RUSH CITY      FAIR      28  26  89 S6        29.59F WCI  22
MOOSE LAKE     FAIR      28  27  93 S9        29.52F WCI  20
HINCKLEY       FAIR      28  27  93 S6        29.58F WCI  22
CLOQUET        FAIR      28  25  86 SW8       29.49F WCI  20
MCGREGOR       FAIR      34  28  80 SW9       29.50F WCI  26
$$
MNZ071>073-080-081-089-090-097-098-191300-
   Southwest Minnesota

CITY           SKY/WX    TMP DP  RH WIND       PRES   REMARKS
MONTEVIDEO     CLOUDY    28  25  86 SE3       29.55F
GRANITE FALLS  CLOUDY    33  29  84 S10       29.57F WCI  25
CANBY          CLOUDY    44  28  53 SW13      29.55F
MARSHALL       CLOUDY    37  26  64 SW10      29.57F
REDWOOD FALLS  CLOUDY    30  26  85 S8        29.58F WCI  22
OLIVIA         CLOUDY    32  27  80 S8        29.57F WCI  25
PIPESTONE      CLOUDY    28  25  86 S5        29.60F WCI  23
WINDOM         CLOUDY    30  16  55 S6        29.62F WCI  24
WORTHINGTON    CLOUDY    31  26  82 S14       29.62F WCI  21
JACKSON        CLOUDY    28  25  86 S13       29.64F WCI  18
SLAYTON        CLOUDY    32  27  81 S14       29.61F WCI  22
$$
MNZ065>067-074>077-082>085-091>093-191300-
   South Central Minnesota

CITY           SKY/WX    TMP DP  RH WIND       PRES   REMARKS
MANKATO        FAIR      26  23  88 S10       29.64F WCI  16
NEW ULM        CLOUDY    28  25  86 S6        29.62F WCI  22
ST JAMES       CLOUDY    30  27  86 SE8       29.63F WCI  23
FAIRMONT       CLOUDY    27  24  89 S12       29.66F WCI  17
FARIBAULT      FAIR      28  23  80 S6        29.66F WCI  22
OWATONNA       FAIR      28  25  86 S6        29.67F WCI  22
WASECA         FAIR      27  23  86 S9        29.67F WCI  17
ALBERT LEA     FAIR      28  21  74 S3        29.68F
$$
MNZ078>079-086>088-094>096-191300-
   Southeast Minnesota

CITY           SKY/WX    TMP DP  RH WIND       PRES   REMARKS
ROCHESTER      FAIR      26  22  84 S13       29.69F WCI  15
6HR MIN TEMP:  24; 6HR MAX TEMP:  26;

RED WING       FAIR      27  19  74 SE6       29.67F WCI  20
STANTON        FAIR      32  26  77 S8        29.65F WCI  25
DODGE CENTER   FAIR      27  21  80 S12       29.67F WCI  16
WINONA         FAIR      28  23  80 CALM      29.73R
AUSTIN         FAIR      25  19  80 S6        29.70F WCI  18
PRESTON        FAIR      25  20  80 S12       29.71F WCI  14
$$
ABBREVIATIONS USED IN REMARKS
   TC - TEMPERATURES IN CELSIUS
  WCI - WIND CHILL INDEX
   HX - HEAT INDEX
  VSB - VISIBILITY
$$




USA.gov is the U.S. government's official web portal to all federal, state and local government web resources and services.